Location: Aalen
(48.8330°N, 10.1000°E)
Time: 20:35:32
(UTC+02:00)

S-56A Canister/Altair - Pass Details

Date: 07 August 2021
Orbit: 632 x 2500 km, 38.9° (Epoch: 19 September)

Event Time Altitude Azimuth Distance (km) Brightness Sun altitude
Rises 11:50:06 0° 178° (S) 4,551 11.9 52.1°
Reaches altitude 10° 11:54:53 10° 155° (SSE) 3,964 12.0 52.6°
Maximum altitude 11:59:55 14° 127° (SE) 3,971 12.0 53.1°
Drops below altitude 10° 12:05:40 10° 100° (E) 4,681 12.0 53.6°
Sets 12:12:18 0° 80° (E) 5,984 12.2 54.2°
